カタログに戻る

COSMOS 839 DEB

運用中UNKNOWN
NORAD 10437·DEBRIS·🇷🇺 Russia

打ち上げ Jul 8, 1976 から Plesetsk Cosmodrome

Loading…

次のパス (今後24時間)

TLE

最新Source: Space-Track

元期: Sep 14, 2026, 13:06 UTC

1 10437U 76067N   26257.54604259  .00000017  00000-0  28423-3 0  9998
2 10437  65.8215 295.3992 0662949  34.5249  36.1446 12.31286874252461

AllMySatでCOSMOS 839 DEBをリアルタイム追跡

Download on the App Store